Weather History for Wainwright, AK

Change the Weather History Date:

Monday, May 6, 2013

  Actual Average (PABR) Record (PABR)
Temperature  
Mean Temperature 24 °F 16 °F  
Max Temperature 28 °F 21 °F 38 °F (1981)
Min Temperature 21 °F 10 °F -19 °F (1984)
Degree Days  
Heating Degree Days 40 50  
Month to date heating degree days 307  
Since 1 July heating degree days 17454  
Cooling Degree Days 0    
Month to date cooling degree days  
Year to date cooling degree days  
Moisture  
Dew Point 24 °F    
Average Humidity 86    
Maximum Humidity 93    
Minimum Humidity 80    
Precipitation  
Precipitation 0.00 in 0.01 in 0.18 in (2000)
Month to date precipitation 0.03  
Year to date precipitation 0.55  
Snow  
Snow 0.00 in 0.10 in 2.30 in (2000)
Month to date snowfall 0.6  
Since 1 July snowfall 34.9  
Snow Depth -    
Sea Level Pressure  
Sea Level Pressure 29.94 in    
Wind  
Wind Speed 18 mph (SSW)    
Max Wind Speed 25 mph    
Max Gust Speed 32 mph    
Visibility 2 miles    
Events Snow    
T = Trace of Precipitation, MM = Missing Value Source: NWS Daily Summary

Daily Weather History Graph

Daily Weather History Graph

Search for Another Location

Airport:

Trip Planner

Search our weather history database for the weather conditions in past years. The results will help you decide how hot, cold, wet, or windy it might be!

Date:

Astronomy

May. 06, 2013 Rise Set
Actual Time 4:21 AM AKDT 12:58 AM AKDT
Civil Twilight Sun does not rise Sun does not rise
Nautical Twilight Sun does not rise Sun does not rise
Astronomical Twilight Sun does not rise Sun does not rise
Moon 4:54 AM AKDT (5/6) 8:04 PM AKDT (5/6)
Length of Visible Light 24h 00m
Length of Day
20h 37m
Waning Crescent, 10% of the Moon is Illuminated
May 6
Waning Crescent
May 9
New
May 17
First Quarter
May 24
Full
May 31
Last Quarter

Hourly Weather History & Observations

Time (AKDT) Temp. Windchill Dew Point Humidity Pressure Visibility Wind Dir Wind Speed Gust Speed Precip Events Conditions
12:08 AM 26.6 °F 13.8 °F 24.8 °F 93% 29.94 in 1.5 mi SSW 17.3 mph - 0.00 in Snow Light Snow
12:53 AM 26.1 °F 15.0 °F 24.1 °F 92% 29.95 in 3.0 mi South 12.7 mph - 0.00 in Snow Light Snow
1:12 AM 26.6 °F 15.2 °F 21.2 °F 80% 29.94 in 5.0 mi SSW 13.8 mph - 0.00 in Snow Light Snow
1:53 AM 26.1 °F 13.6 °F 23.0 °F 88% 29.95 in 3.0 mi SSW 16.1 mph - 0.00 in Snow Light Snow
2:33 AM 26.6 °F 14.7 °F 23.0 °F 86% 29.94 in 4.0 mi SSW 15.0 mph - 0.00 in Snow Light Snow
2:53 AM 26.1 °F 14.0 °F 23.0 °F 88% 29.95 in 5.0 mi SSW 15.0 mph - 0.00 in Snow Light Snow
3:22 AM 26.6 °F 14.3 °F 21.2 °F 80% 29.94 in 8.0 mi SSW 16.1 mph - 0.00 in Snow Light Snow
3:49 AM 26.6 °F 15.7 °F 23.0 °F 86% 29.94 in 10.0 mi South 12.7 mph - 0.00 in   Overcast
3:53 AM 26.1 °F 15.0 °F 23.0 °F 88% 29.95 in 10.0 mi South 12.7 mph - 0.00 in   Overcast
4:32 AM 24.8 °F 13.4 °F 21.2 °F 86% 29.94 in 1.8 mi SSW 12.7 mph - 0.00 in Snow Light Snow
4:53 AM 24.1 °F 12.0 °F 21.0 °F 88% 29.94 in 2.5 mi SSW 13.8 mph - 0.00 in Snow Light Snow
5:00 AM 24.8 °F 13.4 °F 21.2 °F 86% 29.94 in 5.0 mi SSW 12.7 mph - 0.00 in Snow Light Snow
5:24 AM 21.2 °F 10.1 °F 19.4 °F 93% 29.94 in 6.0 mi SSW 10.4 mph - 0.00 in Snow Light Snow
5:50 AM 23.0 °F 12.4 °F 19.4 °F 86% 29.94 in 2.5 mi South 10.4 mph - 0.00 in Snow Light Snow
5:53 AM 24.1 °F 13.7 °F 21.0 °F 88% 29.94 in 2.5 mi South 10.4 mph - 0.00 in Snow Light Snow
6:13 AM 24.8 °F 14.0 °F 21.2 °F 86% 29.93 in 1.8 mi SSW 11.5 mph - 0.00 in Snow Light Snow
6:40 AM 26.6 °F 13.8 °F 23.0 °F 86% 29.93 in 1.8 mi SSW 17.3 mph - 0.00 in Snow Light Snow
6:53 AM 26.1 °F 12.3 °F 23.0 °F 88% 29.93 in 1.8 mi SSW 19.6 mph - 0.00 in Snow Light Snow
7:10 AM 26.6 °F 13.1 °F 23.0 °F 86% 29.93 in 1.0 mi SSW 19.6 mph - 0.00 in Snow Light Snow
7:38 AM 26.6 °F 13.1 °F 23.0 °F 86% 29.93 in 1.2 mi SSW 19.6 mph - 0.00 in Snow Light Snow
7:53 AM 26.1 °F 12.3 °F 23.0 °F 88% 29.93 in 1.5 mi SSW 19.6 mph - 0.00 in Snow Light Snow
8:15 AM 26.6 °F 13.1 °F 21.2 °F 80% 29.92 in 1.5 mi SSW 19.6 mph - 0.00 in Snow Light Snow
8:53 AM 26.1 °F 11.6 °F 21.9 °F 84% 29.92 in 1.2 mi SSW 21.9 mph - 0.00 in Snow Light Snow
9:53 AM 26.1 °F 12.3 °F 23.0 °F 88% 29.93 in 1.0 mi SSW 19.6 mph - 0.00 in Snow Light Snow
10:14 AM 26.6 °F 12.0 °F 23.0 °F 86% 29.92 in 0.8 mi SSW 23.0 mph - 0.00 in Snow Light Snow
10:24 AM 26.6 °F 12.0 °F 23.0 °F 86% 29.92 in 0.8 mi SSW 23.0 mph - 0.00 in Snow Light Snow
10:53 AM 27.0 °F 12.5 °F 24.1 °F 89% 29.93 in 1.0 mi SSW 23.0 mph - 0.00 in Snow Light Snow
11:44 AM 28.4 °F 14.4 °F 24.8 °F 86% 29.93 in 1.0 mi SSW 23.0 mph - 0.00 in Snow Light Snow
11:53 AM 28.0 °F 13.9 °F 24.1 °F 85% 29.93 in 1.2 mi SSW 23.0 mph - 0.00 in Snow Light Snow
12:17 PM 28.4 °F 14.4 °F 24.8 °F 86% 29.93 in 1.2 mi SSW 23.0 mph - 0.00 in Snow Light Snow
12:43 PM 28.4 °F 14.4 °F 24.8 °F 86% 29.93 in 1.0 mi SSW 23.0 mph - 0.00 in Snow Light Snow
12:53 PM 28.0 °F 13.6 °F 24.1 °F 85% 29.93 in 1.0 mi SSW 24.2 mph - 0.00 in Snow Light Snow
1:12 PM 28.4 °F 14.1 °F 24.8 °F 86% 29.93 in 1.2 mi SSW 24.2 mph - 0.00 in Snow Light Snow
1:53 PM 28.9 °F 14.5 °F 25.0 °F 85% 29.94 in 1.2 mi SSW 25.3 mph - 0.00 in Snow Light Snow
2:53 PM 28.9 °F 14.5 °F 25.0 °F 85% 29.94 in 2.5 mi SSW 25.3 mph - 0.00 in Snow Light Snow
3:04 PM 28.4 °F 13.8 °F 24.8 °F 86% 29.94 in 1.5 mi SSW 25.3 mph - 0.00 in Snow Light Snow
3:44 PM 28.4 °F 14.1 °F 24.8 °F 86% 29.94 in 2.5 mi SSW 24.2 mph - 0.00 in Snow Light Snow
3:53 PM 28.9 °F 14.8 °F 25.0 °F 85% 29.94 in 2.5 mi SSW 24.2 mph - 0.00 in Snow Light Snow
4:07 PM 28.4 °F 14.7 °F 24.8 °F 86% 29.94 in 3.0 mi SSW 21.9 mph - 0.00 in   Haze
4:43 PM 28.4 °F 14.4 °F 24.8 °F 86% 29.94 in 2.5 mi SW 23.0 mph - 0.00 in Snow Light Snow
4:53 PM 28.9 °F 15.1 °F 25.0 °F 85% 29.95 in 2.5 mi SSW 23.0 mph - 0.00 in Snow Light Snow
5:04 PM 28.4 °F 14.7 °F 24.8 °F 86% 29.94 in 3.0 mi SSW 21.9 mph - 0.00 in Snow Light Snow
5:18 PM 28.4 °F 15.1 °F 24.8 °F 86% 29.95 in 2.0 mi SSW 20.7 mph - 0.00 in Snow Light Snow
5:53 PM 28.9 °F 15.4 °F 25.0 °F 85% 29.95 in 2.5 mi SW 21.9 mph - 0.00 in Snow Light Snow
6:53 PM 28.9 °F 15.1 °F 25.0 °F 85% 29.94 in 2.5 mi SSW 23.0 mph - 0.00 in Snow Light Snow
7:04 PM 28.4 °F 15.4 °F 24.8 °F 86% 29.94 in 3.0 mi SSW 19.6 mph - 0.00 in Snow Light Snow
7:11 PM 28.4 °F 14.4 °F 24.8 °F 86% 29.94 in 4.0 mi SSW 23.0 mph - 0.00 in Snow Light Snow
7:34 PM 28.4 °F 15.1 °F 24.8 °F 86% 29.94 in 2.5 mi SSW 20.7 mph - 0.00 in Snow Light Snow
7:53 PM 28.9 °F 15.4 °F 25.0 °F 85% 29.94 in 3.0 mi SSW 21.9 mph - 0.00 in Snow Light Snow
8:05 PM 28.4 °F 15.1 °F 24.8 °F 86% 29.94 in 1.8 mi SSW 20.7 mph - 0.00 in Snow Light Snow
8:53 PM 28.9 °F 15.1 °F 25.0 °F 85% 29.94 in 1.5 mi SSW 23.0 mph - 0.00 in Snow Light Snow
8:59 PM 28.4 °F 14.7 °F 24.8 °F 86% 29.93 in 1.5 mi SSW 21.9 mph - 0.00 in Snow Light Snow
9:32 PM 28.4 °F 14.4 °F 24.8 °F 86% 29.93 in 2.5 mi SSW 23.0 mph - 0.00 in Snow Light Snow
9:46 PM 28.4 °F 14.7 °F 24.8 °F 86% 29.93 in 1.5 mi SSW 21.9 mph - 0.00 in Snow Light Snow
9:53 PM 28.9 °F 15.1 °F 25.0 °F 85% 29.94 in 1.5 mi SSW 23.0 mph - 0.00 in Snow Light Snow
10:46 PM 28.4 °F 15.1 °F 24.8 °F 86% 29.93 in 1.5 mi SSW 20.7 mph - 0.00 in Snow Light Snow
10:53 PM 28.0 °F 14.9 °F 24.1 °F 85% 29.94 in 1.8 mi SSW 19.6 mph - 0.00 in Snow Light Snow
11:01 PM 28.4 °F 15.1 °F 24.8 °F 86% 29.93 in 2.0 mi SSW 20.7 mph - 0.00 in Snow Light Snow
11:36 PM 28.4 °F 14.4 °F 24.8 °F 86% 29.93 in 1.2 mi SSW 23.0 mph - 0.00 in Snow Light Snow
11:53 PM 28.0 °F 13.6 °F 25.0 °F 88% 29.93 in 1.8 mi SSW 24.2 mph 32.2 mph 0.00 in Snow Light Snow